Home > Time Zones > World Clock > Weather > Spain > Lugo > Past weeks

Flag for Spain Weather past 2 weeks in Lugo, Galicia, Spain

Now
50 °F

Cool.


Feels Like: 50 °F
Forecast: 43 / 69 °F
Wind: 2 mph from North

Location: Santiago / Labacolla

Current Time: Mar 29, 2015 at 9:34:50 AM

Latest Report: Mar 29, 2015 at 9:00 AM


Visibility: 3 mi

Pressure: 30.45 "Hg

Humidity: 100%

Dew point: 50 °F

Location of LugoLocation

Historic Weather in Lugo — Graph

°F

Lugo temperature yesterday

Maximum temperature yesterday: 57 °F (at 4:30 PM)
Minimum temperature yesterday: 45 °F (at 1:30 AM)
Average temperature yesterday: 49 °F

Past Weeks' High & Low Weather Summary

 TemperatureHumidityPressure
High61 °F (Mar 18, 4:30 PM)100% (Mar 15, 3:30 AM)30.51 "Hg (Mar 15, 3:30 AM)
Low34 °F (Mar 16, 8:00 AM)41% (Mar 16, 3:00 PM)29.83 "Hg (Mar 23, 2:30 PM)
Average47 °F77%30.10 "Hg
* Reported Mar 14 7:00 AM — Mar 29 8:30 AM, Lugo, Weather by CustomWeather, © 2015

Note: Actual official high and low records may vary slightly from our data, if they occured in-between our weather recording intervals... More about our weather records

Advertising

Lugo weather history for previous 24 hours

 ConditionsComfort  
Time TempWeatherWind HumidityBarometerVisibility
8:30 AM
Sun, Mar 29
48 °FFog.2 mph100%30.45 "Hg6 mi
8:00 AM48 °FPassing clouds.5 mph100%30.45 "Hg5 mi
7:30 AM48 °FFog.3 mph100%30.45 "Hg0 mi
7:00 AM48 °FDrizzle. Fog.3 mph100%30.42 "Hg0 mi
6:30 AM48 °FPassing clouds.1 mph100%30.45 "Hg1 mi
6:00 AM48 °FDrizzle. Fog.2 mph100%30.45 "Hg1 mi
5:30 AM48 °FDrizzle. Fog.3 mph100%30.45 "Hg0 mi
5:00 AM48 °FDrizzle. Fog.5 mph100%30.45 "Hg0 mi
4:30 AM48 °FPassing clouds.2 mph100%30.45 "Hg2 mi
4:00 AM48 °FPassing clouds.1 mph100%30.45 "Hg1 mi
3:30 AM48 °FPassing clouds.2 mph100%30.48 "Hg1 mi
3:00 AM48 °FDrizzle. Fog.5 mph100%30.48 "Hg0 mi
1:30 AM48 °FDrizzle. Fog.3 mph100%30.48 "Hg0 mi
1:00 AM48 °FPartly cloudy.7 mph100%30.48 "Hg1 mi
12:30 AM48 °FPartly cloudy.2 mph100%30.48 "Hg1 mi
12:00 AM48 °FPartly cloudy.1 mph100%30.48 "Hg4 mi
11:30 PM
Sat, Mar 28
48 °FPartly cloudy.3 mph100%30.48 "HgN/A
11:00 PM48 °FPassing clouds.2 mph94%30.48 "HgN/A
10:30 PM48 °FPassing clouds.1 mph94%30.48 "HgN/A
10:00 PM48 °FPassing clouds.2 mph94%30.48 "HgN/A
9:30 PM50 °FPassing clouds.3 mph88%30.48 "HgN/A
9:00 PM50 °FPassing clouds.2 mph88%30.48 "HgN/A
8:30 PM50 °FPassing clouds.2 mph94%30.48 "HgN/A
8:00 PM52 °FPassing clouds.2 mph88%30.48 "HgN/A
7:30 PM54 °FScattered clouds.5 mph82%30.48 "HgN/A
7:00 PM55 °FPartly sunny.3 mph77%30.48 "HgN/A
6:30 PM55 °FPartly sunny.8 mph77%30.45 "HgN/A
6:00 PM57 °FPartly sunny.5 mph72%30.48 "HgN/A
5:30 PM57 °FPartly sunny.6 mph72%30.45 "HgN/A
5:00 PM57 °FPartly sunny.5 mph72%30.48 "HgN/A
4:30 PM57 °FPartly sunny.6 mph72%30.48 "HgN/A
4:00 PM55 °FBroken clouds.3 mph77%30.48 "HgN/A
3:30 PM55 °FPartly sunny.7 mph77%30.48 "HgN/A
3:00 PM54 °FCloudy.6 mph82%30.51 "HgN/A
2:30 PM54 °FBroken clouds.7 mph82%30.51 "HgN/A
2:00 PM52 °FBroken clouds.6 mph88%30.51 "HgN/A
1:30 PM52 °FMore clouds than sun.6 mph88%30.51 "HgN/A
1:00 PM52 °FMore clouds than sun.5 mph88%30.48 "HgN/A
12:30 PM50 °FMostly cloudy.7 mph94%30.48 "HgN/A
12:00 PM50 °FMostly cloudy.5 mph94%30.48 "HgN/A
11:30 AM48 °FMostly cloudy.3 mph100%30.51 "Hg6 mi
11:00 AM48 °FMostly cloudy.2 mph100%30.51 "Hg6 mi
10:30 AM48 °FMore clouds than sun.1 mph100%30.51 "Hg5 mi
10:00 AM46 °FSleet. Fog.1 mph100%30.51 "Hg4 mi
9:30 AM46 °FSleet. Fog.2 mph100%30.51 "Hg3 mi
9:00 AM46 °FFog.2 mph100%30.51 "Hg1 mi
Weather by CustomWeather, © 2015

See weather overviewHow to use our weather pages